OE5RPP Weather Reports


time (UTC)temp
F
wind
direction
speed
knots
gust
knots
rain 1hr
in
rain 24hr
in
rain mn
in
humidity
%
barometer
mb
20260505140106 80 90 2.6 2.6 0.00 0.00 0.00 17 1007.9
20260505130106 83 0 4.3 2.6 0.00 0.00 0.00 15 1008.9
20260505124105 82 45 2.6 3.5 0.00 0.00 0.00 15 1008.9
20260505123106 81 45 4.3 4.3 0.00 0.00 0.00 15 1008.9
20260505122106 80 90 2.6 2.6 0.00 0.00 0.00 17 1008.9
20260505121105 79 22 4.3 4.3 0.00 0.00 0.00 17 1008.9
20260505120106 79 22 2.6 2.6 0.00 0.00 0.00 17 1008.9
20260505115104 77 315 2.6 5.2 0.00 0.00 0.00 17 1008.9
20260505114104 78 247 4.3 5.2 0.00 0.00 0.00 17 1008.9
20260505113105 79 22 2.6 3.5 0.00 0.00 0.00 17 1009.9
20260505112105 78 337 4.3 6.1 0.00 0.00 0.00 17 1009.9
20260505111104 78 157 2.6 0.0 0.00 0.00 0.00 17 1009.9
20260505110105 76 247 3.5 2.6 0.00 0.00 0.00 18 1009.9
20260505101024 76 0 2.6 2.6 0.00 0.00 0.00 18 1010.9
20260505100025 74 22 4.3 4.3 0.00 0.00 0.00 18 1010.9
20260505095025 74 157 4.3 4.3 0.00 0.00 0.00 18 1010.9
20260505094024 74 22 2.6 2.6 0.00 0.00 0.00 18 1010.9
20260505093024 74 0 2.6 3.5 0.00 0.00 0.00 18 1010.9
20260505092024 73 337 2.6 3.5 0.00 0.00 0.00 18 1010.9
20260505091025 72 135 1.7 5.2 0.00 0.00 0.00 18 1010.9
20260505090025 71 315 3.5 2.6 0.00 0.00 0.00 18 1010.9
20260505085025 71 135 0.9 3.5 0.00 0.00 0.00 18 1010.9
20260505084025 70 337 2.6 2.6 0.00 0.00 0.00 20 1010.9
20260505083024 70 22 2.6 2.6 0.00 0.00 0.00 20 1010.9
20260505082024 69 0 3.5 3.5 0.00 0.00 0.00 20 1010.9
20260505081024 69 202 3.5 2.6 0.00 0.00 0.00 23 1010.9
20260505080024 68 90 2.6 2.6 0.00 0.00 0.00 26 1011.9
20260505075024 67 112 2.6 2.6 0.00 0.00 0.00 30 1011.9
20260505074025 66 22 0.0 0.0 0.00 0.00 0.00 30 1011.9
20260505073025 65 0 2.6 2.6 0.00 0.00 0.00 31 1011.9
20260505072025 65 157 2.6 0.0 0.00 0.00 0.00 32 1011.9
20260505071024 64 0 2.6 2.6 0.00 0.00 0.00 34 1011.9
20260505070025 63 0 0.0 0.0 0.00 0.00 0.00 34 1011.9
20260505065025 62 0 0.0 0.0 0.00 0.00 0.00 35 1011.9
20260505064025 61 0 4.3 4.3 0.00 0.00 0.00 37 1011.9
20260505063024 61 202 0.0 0.0 0.00 0.00 0.00 40 1011.9
20260505062024 60 202 0.9 2.6 0.00 0.00 0.00 43 1011.9
20260505061025 59 202 0.0 0.0 0.00 0.00 0.00 46 1011.9
20260505060025 58 180 0.9 0.0 0.00 0.00 0.00 49 1011.9
20260505055025 57 180 1.7 0.9 0.00 0.00 0.00 50 1011.9
20260505054024 56 157 2.6 2.6 0.00 0.00 0.00 51 1011.9
20260505053025 55 180 1.7 3.5 0.00 0.00 0.00 51 1011.9
20260505052025 53 180 0.9 0.0 0.00 0.00 0.00 51 1011.9
20260505051024 52 180 0.0 0.0 0.00 0.00 0.00 50 1011.9
20260505041025 50 180 4.3 4.3 0.00 0.00 0.00 49 1011.9
20260505040025 49 180 0.0 0.0 0.00 0.00 0.00 49 1011.9
20260505035025 49 180 3.5 2.6 0.00 0.00 0.00 49 1011.9
20260505034024 49 270 0.0 0.0 0.00 0.00 0.00 48 1011.9
20260505033025 50 270 0.0 0.0 0.00 0.00 0.00 48 1011.9
20260505032025 51 270 2.6 2.6 0.00 0.00 0.00 48 1011.9
20260505031024 51 0 2.6 2.6 0.00 0.00 0.00 47 1012.9
20260505030024 52 202 2.6 3.5 0.00 0.00 0.00 47 1012.9
20260505025024 52 202 0.0 0.0 0.00 0.00 0.00 48 1012.9
20260505024025 53 202 1.7 0.0 0.00 0.00 0.00 48 1012.9
20260505023024 53 337 0.0 0.0 0.00 0.00 0.00 47 1012.9
20260505022024 53 337 1.7 0.0 0.00 0.00 0.00 47 1012.9
20260505021024 53 337 0.0 0.0 0.00 0.00 0.00 47 1012.9
20260505020025 53 337 0.0 0.0 0.00 0.00 0.00 46 1012.9
20260505015025 53 337 2.6 3.5 0.00 0.00 0.00 46 1012.9
20260505014024 54 292 2.6 2.6 0.00 0.00 0.00 46 1012.9
20260505013024 54 315 0.0 0.0 0.00 0.00 0.00 46 1012.9
20260505012024 54 315 0.0 0.0 0.00 0.00 0.00 46 1012.9
20260505011025 54 315 0.0 0.0 0.00 0.00 0.00 46 1012.9
20260505010024 54 315 3.5 2.6 0.00 0.00 0.00 46 1012.9
20260505005024 54 157 2.6 2.6 0.00 0.00 0.00 46 1012.9
20260505004025 54 202 3.5 3.5 0.00 0.00 0.00 46 1012.9
20260505003024 54 22 0.0 0.0 0.00 0.00 0.00 46 1013.9
20260505002024 54 22 2.6 2.6 0.00 0.00 0.00 45 1013.9
20260505001024 54 157 3.5 3.5 0.00 0.00 0.00 45 1013.9
20260505000025 55 157 0.9 0.0 0.00 0.00 0.00 45 1013.9
20260504235025 55 157 0.9 0.0 0.00 0.00 0.00 46 1013.9
20260504234024 54 90 2.6 2.6 0.00 0.00 0.00 45 1013.9
20260504233025 54 315 1.7 3.5 0.00 0.00 0.00 41 1013.9
20260504232025 54 315 0.0 0.0 0.00 0.00 0.00 40 1013.9
20260504231024 54 315 0.0 0.0 0.00 0.00 0.00 40 1013.9
20260504230024 54 315 0.0 0.0 0.00 0.00 0.00 40 1013.9
20260504225024 54 315 1.7 2.6 0.00 0.00 0.00 37 1013.9
20260504224025 54 315 0.0 0.0 0.00 0.00 0.00 36 1013.9
20260504223024 56 315 0.9 0.0 0.00 0.00 0.00 37 1013.9
20260504222024 56 315 3.5 3.5 0.00 0.00 0.00 35 1013.9
20260504221024 56 315 0.0 0.0 0.00 0.00 0.00 35 1013.9
20260504220025 56 315 0.0 0.0 0.00 0.00 0.00 35 1013.9
20260504215024 56 315 0.0 0.0 0.00 0.00 0.00 34 1013.9
20260504214024 56 315 0.0 0.0 0.00 0.00 0.00 34 1013.9
20260504213025 57 315 0.0 0.0 0.00 0.00 0.00 34 1013.9
20260504212025 57 315 0.0 0.0 0.00 0.00 0.00 32 1013.9
20260504211025 58 315 0.0 0.0 0.00 0.00 0.00 32 1013.9
20260504210024 58 315 0.0 0.0 0.00 0.00 0.00 30 1013.9
20260504205024 58 315 1.7 2.6 0.00 0.00 0.00 30 1013.9
20260504204023 59 315 1.7 2.6 0.00 0.00 0.00 26 1013.9
20260504203024 59 315 2.6 2.6 0.00 0.00 0.00 22 1013.9
20260504202024 61 270 0.9 0.0 0.00 0.00 0.00 22 1013.9
20260504201024 62 270 2.6 2.6 0.00 0.00 0.00 22 1013.9
20260504200025 63 270 0.0 0.0 0.00 0.00 0.00 21 1013.9
20260504195025 63 157 2.6 2.6 0.00 0.00 0.00 21 1013.9
20260504194024 64 67 2.6 2.6 0.00 0.00 0.00 21 1013.9
20260504193025 64 67 0.0 0.0 0.00 0.00 0.00 21 1013.9
20260504192024 66 67 0.0 0.0 0.00 0.00 0.00 21 1013.9
20260504191024 67 315 2.6 2.6 0.00 0.00 0.00 21 1013.9
20260504190025 67 270 4.3 3.5 0.00 0.00 0.00 21 1013.9
20260504185025 66 292 4.3 3.5 0.00 0.00 0.00 21 1013.9
20260504184025 66 0 0.0 0.0 0.00 0.00 0.00 21 1013.9
20260504183024 67 0 0.0 0.0 0.00 0.00 0.00 21 1012.9
20260504182024 66 0 2.6 2.6 0.00 0.00 0.00 21 1012.9
20260504181025 67 22 0.0 0.0 0.00 0.00 0.00 21 1012.9
20260504180025 68 22 0.9 0.0 0.00 0.00 0.00 21 1012.9
20260504175025 69 22 0.0 0.0 0.00 0.00 0.00 20 1012.9
20260504174024 70 22 0.9 2.6 0.00 0.00 0.00 20 1012.9
20260504173025 71 22 0.0 0.0 0.00 0.00 0.00 20 1012.9
20260504172025 72 22 0.0 0.0 0.00 0.00 0.00 18 1012.9
20260504171024 73 22 0.9 0.0 0.00 0.00 0.00 18 1012.9
20260504151024 82 90 2.6 3.5 0.00 0.00 0.00 15 1012.9